This demonstration page uses our WeatherBlox Daily Observations layout. Learn more.

38.88101, -77.10428

Hourly Observations for October 20, 2016

Temp ( °F °C ) Dew Point ( °F °C ) Humidity (%) Winds ( mph kmh ) Pressure ( in mb ) Visibility ( mi km ) Precip ( " mm )
12:52 am 00:52 Cloudy with Light Rain 72 22.2 69 20.6 91 91 ESE 3 6 30.06 1018 10 16.09344 0.001 0.001
1:52 am 01:52 Cloudy 72 22.2 69 20.6 91 91 NNW 5 7 30.06 1018 10 16.09344 0.001 0.001
2:52 am 02:52 Cloudy 72 22.2 69 20.6 91 91 E 5 7 30.06 1018 10 16.09344 0.02 0.508
3:52 am 03:52 Cloudy 72 22.2 68 20 87 87 NE 7 11 30.06 1018 10 16.09344 0.001 0.001
4:52 am 04:52 Mostly Clear 70 21.1 67 19.4 90 90 NE 5 7 30.06 1018 10 16.09344 0 0
5:52 am 05:52 Partly Cloudy 69 20.6 64 17.8 84 84 NE 7 11 30.06 1018 10 16.09344 0 0
6:52 am 06:52 Mostly Cloudy 68 20 63 17.2 84 84 NNE 7 11 30.06 1018 10 16.09344 0 0
7:52 am 07:52 Mostly Cloudy 68 20 62 16.7 81 81 NNE 6 9 30.06 1018 10 16.09344 0 0
8:52 am 08:52 Mostly Cloudy 69 20.6 62 16.7 78 78 NNE 7 11 30.09 1019 10 16.09344 0 0
9:52 am 09:52 Mostly Cloudy 71 21.7 64 17.8 79 79 NNE 7 11 30.06 1018 10 16.09344 0 0
10:52 am 10:52 Cloudy 75 23.9 66 18.9 74 74 NE 5 7 30.06 1018 10 16.09344 0 0
11:52 am 11:52 Cloudy 78 25.6 68 20 71 71 ESE 3 6 30.03 1017 10 16.09344 0 0
12:52 pm 12:52 Cloudy 81 27.2 69 20.6 67 67 S 5 7 30 1016 10 16.09344 0 0
1:52 pm 13:52 Mostly Cloudy 83 28.3 70 21.1 65 65 S 8 13 29.97 1015 10 16.09344 0 0
2:52 pm 14:52 Mostly Cloudy 83 28.3 69 20.6 63 63 S 7 11 29.97 1015 10 16.09344 0 0
3:52 pm 15:52 Mostly Cloudy 82 27.8 68 20 63 63 S 8 13 29.94 1014 10 16.09344 0 0
4:52 pm 16:52 Mostly Cloudy 83 28.3 68 20 61 61 SSE 12 19 29.94 1014 10 16.09344 0 0
5:52 pm 17:52 Mostly Cloudy 79 26.1 70 21.1 74 74 SE 10 17 29.91 1013 10 16.09344 0 0
6:52 pm 18:52 Mostly Cloudy 77 25 70 21.1 79 79 SE 12 19 29.91 1013 10 16.09344 0 0
7:52 pm 19:52 Partly Cloudy 75 23.9 69 20.6 82 82 SSE 12 19 29.91 1013 10 16.09344 0 0
8:52 pm 20:52 Partly Cloudy 74 23.3 67 19.4 79 79 S 14 22 29.91 1013 10 16.09344 0 0
9:52 pm 21:52 Mostly Clear 73 22.8 66 18.9 79 79 S 14 22 29.91 1013 10 16.09344 0 0
10:52 pm 22:52 Mostly Cloudy 72 22.2 66 18.9 82 82 S 12 19 29.91 1013 10 16.09344 0 0
11:52 pm 23:52 Mostly Cloudy 71 21.7 67 19.4 87 87 S 13 20 29.88 1012 10 16.09344 0 0

Powered by AerisWeather